Regional Weather Roundup
Issued by NWS Upton, NY

Current Version | Previous Version | Graphics & Text | Print | Product List | Glossary Off
Versions: 1 2 3 4 5 6 7 8 9 10 11 12 13 14 15 16 17 18 19 20 21 22 23 24 25 26 27 28 29 30 31 32 33 34 35 36 37 38 39 40 41 42 43 44 45 46

000
ASUS41 KOKX 040304
RWROKX

REGIONAL WEATHER ROUNDUP
NATIONAL WEATHER SERVICE NEW YORK NY
1100 PM EDT MON AUG 03 2015

NOTE: "FAIR" INDICATES FEW OR NO CLOUDS BELOW 12,000 FEET WITH NO
SIGNIFICANT WEATHER AND/OR OBSTRUCTIONS TO VISIBILITY.

NYZ071-072-176-178-NJZ106-104-040400-
NEW YORK CITY METRO AREA


CITY           SKY/WX    TMP DP  RH WIND       PRES   REMARKS
CENTRAL PARK   CLEAR     82  59  45 MISG      29.84S
LAGUARDIA APRT PTCLDY    85  59  41 SW9       29.81R
KENNEDY INTL   PTCLDY    76  71  85 SW9       29.83S
NEWARK/LIBERTY PTCLDY    81  61  50 SW6       29.81S
BRNX BOT. GARD   N/A     84  59  42 W2        29.81F
TETERBORO      CLEAR     82  58  43 SW8       29.80R
$$

NYZ177-179-078>081-040400-
LONG ISLAND NEW YORK

CITY           SKY/WX    TMP DP  RH WIND       PRES   REMARKS
FARMINGDALE    CLEAR     78  72  81 SW9       29.82F
ISLIP          PTCLDY    78  73  84 S12       29.81S
SHIRLEY        CLOUDY    78  75  90 S10       29.83F
WESTHAMPTON    PTCLDY    77  75  93 SW10G20   29.85S
MONTAUK POINT    N/A     77  73  87 S10G18    29.84F
$$

NYZ052-065-067-040400-
HUDSON VALLEY

CITY           SKY/WX    TMP DP  RH WIND       PRES   REMARKS
WHITE PLAINS   CLEAR     75  66  73 S3        29.82S
NEWBURGH       CLEAR     77  63  61 W7        29.83R
MONTGOMERY     CLEAR     73  64  73 SW8       29.81S
POUGHKEEPSIE   CLEAR     73  63  70 CALM      29.79R
ALBANY         TSTM      70  67  90 E8        29.79F FOG
$$

NJZ001-105-106-008-010-013-015-019>022-104-040400-
NEW JERSEY

CITY           SKY/WX    TMP DP  RH WIND       PRES   REMARKS
NEWARK/LIBERTY PTCLDY    81  61  50 SW6       29.81S
TETERBORO      CLEAR     82  58  43 SW8       29.80R
CALDWELL       CLEAR     79  59  50 CALM      29.81S
MORRISTOWN     PTCLDY    72  61  68 CALM      29.82S
SOMERVILLE     MOCLDY    74  62  66 CALM      29.80S
SUSSEX         PTCLDY    69  64  84 CALM      29.82S
ANDOVER          N/A     69  64  84 CALM      29.83F
TRENTON        MOCLDY    78  63  59 S6        29.82S
MILLVILLE      CLEAR     80  72  76 VRB5      29.85R
ATLANTIC CITY  CLEAR     78  74  87 S10       29.85S
WRIGHTSTOWN    CLEAR     74  64  70 S6        29.81S
TOMS RIVER       N/A     73  70  88 S3        29.84S
BELMAR         CLEAR     77  66  69 S6        29.84S
$$

PAZ047>061-062-071-040400-
EASTERN PENNSYLVANIA

CITY           SKY/WX    TMP DP  RH WIND       PRES   REMARKS
PHILADELPHIA   PTCLDY    81  67  62 SW7       29.83S
ALLENTOWN      MOCLDY    72  66  81 SW3       29.82F
SCRANTON       CLOUDY    78  62  57 S6        29.82S
$$

CTZ002-004>006-009-010-012-RIZ004-006-007-MAZ004-011-015-040400-
SOUTHERN NEW ENGLAND
 IN CT

CITY           SKY/WX    TMP DP  RH WIND       PRES   REMARKS
BRADLEY INTL   PTCLDY    77  68  73 S10       29.79R
HARTFORD       CLEAR     76  70  82 S7        29.80R
DANBURY        CLEAR     74  65  73 CALM      29.83S
WTRBRY/OXFORD  CLEAR     73  64  73 SW5       29.85S
BRIDGEPORT     CLEAR     77  71  82 SW5       29.80F
MERIDEN        CLEAR     77  69  76 S5        29.81S
NEW HAVEN      PTCLDY    76  71  85 VRB5      29.81S
CHESTER        FAIR      75  73  94 SW5       29.84S
GROTON         CLEAR     74  71  91 SW3       29.82S
WILLIMANTIC    CLEAR     76  69  79 S5        29.82S

 IN RI

CITY           SKY/WX    TMP DP  RH WIND       PRES   REMARKS
PROVIDENCE     PTCLDY    75  71  87 SW13G20   29.83S
BLOCK ISLAND     N/A     73  73 100 SW13      29.85S
WESTERLY       CLEAR     75  72  90 SW6       29.84S

 IN MA

CITY           SKY/WX    TMP DP  RH WIND       PRES   REMARKS
BOSTON         PTCLDY    76  67  73 SW14      29.81R
WORCESTER      PTCLDY    72  66  81 SW13      29.84S
WESTFIELD      CLEAR     74  66  76 S3        29.80R
PROVINCETOWN   CLEAR     73  63  68 SW14      29.84S
NANTUCKET      CLEAR     73  71  93 S13       29.87S
$$

ANZ330-335-338-340-345-350-353-355-040400-
COASTAL MARINE OBSERVATIONS


STATION/POSITION TIME  SKY/WX   TEMP    WIND        PRES    VSBY  WAVE
                                AIR SEA DIR/SP/G                  HT/PER
                 (UTC)          (F)     (DEG/KT/KT) (MB)    (MI)  (FT/S)
NY HARB ENTRANCE 0150            78 76  210/ 16/ 17 1009.2          4/ 5
4S FIRE IS       NOT AVBL
20S FIRE ISLAND  0150            78 76  200/ 16/ 17 1009.9          5/ 6
GREAT SOUTH BAY  0200            78 81  220/ 17/ 21   N/A
23SW MTP         0250            78 75  220/ 19/ 21 1009.9          5/ 6
HUDSON CANYON    NOT AVBL
KINGS POINT      0200            79 73  200/ 10/ 12 1008.8
EXECUTION ROCKS  0200            78     180/  6/  8   N/A
CENTRAL LI SOUND NOT AVBL
EASTERN LI SOUND 0200            74 69  200/ 14/ 17   N/A
ROBBINS REEF     0200            84     200/ 10/ 12 1008.4
$$


>>>>>>>>>>>>>>>>>>>>>>>>>>>> KEY <<<<<<<<<<<<<<<<<<<<<<<<<<<
>                                                          <
>     SKY/WX - SKY CONDITION/PRESENT WEATHER               <
>     TMP    - TEMPERATURE IN FAHRENHEIT                   <
>     DP     - DEWPOINT IN FAHRENHEIT                      <
>     RH     - RELATIVE HUMIDITY IN PERCENT                <
>     WIND   - DIRECTION AND SPEED IN MPH                  <
>     PRES   - MEAN SEA LEVEL PRESSURE IN INCHES OF HG     <
>     WCI    - WIND CHILL INDEX                            <
>     VSB    - VISIBILITY IN MILES                         <
>     HX     - HEAT INDEX                                  <
>     TC     - TEMPERATURE IN CELSIUS                      <
>     VRB    - VARIABLE WIND DIRECTION                     <
>                                                          <
>>>>>>>>>>>>>>>>>>>>>>>>>>>> KEY <<<<<<<<<<<<<<<<<<<<<<<<<<<




USA.gov is the U.S. government's official web portal to all federal, state and local government web resources and services.